Weather reports worldwide

Advertisment
Lossiemouth, United Kingdom (3068): temperature & dewpoint: 04.12.2018 14:00:00 - 10.12.2018 14:00:00 (GMT)Lossiemouth, United Kingdom (3068): wind speed & gusts: 04.12.2018 14:00:00 - 10.12.2018 14:00:00 (GMT)Lossiemouth, United Kingdom (3068): wind direction: 04.12.2018 14:00:00 - 10.12.2018 14:00:00 (GMT)Lossiemouth, United Kingdom (3068): reduced air pressure: 04.12.2018 14:00:00 - 10.12.2018 14:00:00 (GMT)Lossiemouth, United Kingdom (3068): visibility: 04.12.2018 14:00:00 - 10.12.2018 14:00:00 (GMT)Lossiemouth, United Kingdom (3068): precipitation: 04.12.2018 14:00:00 - 10.12.2018 14:00:00 (GMT)
Date & Time tt [°C] td [°C] ff [km/h] ff [kn] fx [km/h] fx [kn] dd ppp [hPa] vv [km] rr [mm]
10.12.2018 14:00:00 3,4 0,8 11 6 - - WSW 1025,9 10 0,0
10.12.2018 13:00:00 3,8 1,3 13 7 - - SW 1025,7 10 0,0
10.12.2018 12:00:00 3,6 1,5 13 7 - - W 1025,5 10 0,0
10.12.2018 11:00:00 3,4 1,3 9 5 - - WSW 1025,2 10 0,0
10.12.2018 10:00:00 3,0 1,3 13 7 - - W 1024,5 10 0,0
10.12.2018 09:00:00 2,1 0,9 16 9 - - WSW 1024,3 10 0,0
10.12.2018 08:00:00 4,2 1,2 18 10 - - W 1023,7 10 0,0
10.12.2018 07:00:00 3,9 0,5 18 10 - - WNW 1023,2 10 0,0
10.12.2018 06:00:00 3,8 0,3 18 10 - - WNW 1022,7 10 0,0
10.12.2018 05:00:00 3,7 0,3 18 10 - - WNW 1021,9 10 0,0
10.12.2018 04:00:00 4,2 0,6 18 10 - - WNW 1021,4 10 0,0
10.12.2018 03:00:00 3,8 -0,1 21 11 - - WNW 1020,9 10 0,0
10.12.2018 02:00:00 4,2 1,0 21 11 - - WNW 1020,1 40 0,0
10.12.2018 01:00:00 4,5 1,4 16 9 - - WNW 1019,4 10 0,0
10.12.2018 00:00:00 3,3 0,8 15 8 - - W 1018,6 10 0,0
09.12.2018 23:00:00 3,6 1,6 16 9 - - W 1017,9 10 0,0
09.12.2018 22:00:00 4,3 2,0 22 12 - - WNW 1017,6 10 0,0
09.12.2018 21:00:00 4,6 2,2 28 15 - - WNW 1016,6 10 0,0
09.12.2018 20:00:00 4,4 2,1 24 13 - - W 1015,6 10 0,0
09.12.2018 19:00:00 4,7 1,5 24 13 - - WNW 1015,1 10 0,0
09.12.2018 18:00:00 5,0 1,0 29 16 - - WNW 1014,0 10 0,0
09.12.2018 17:00:00 5,0 0,8 24 13 - - WNW 1013,0 10 0,0
09.12.2018 16:00:00 5,5 0,7 22 12 - - WNW 1012,2 10 0,0
09.12.2018 15:00:00 5,4 0,2 28 15 - - WNW 1010,8 10 0,0
09.12.2018 14:00:00 5,4 0,3 26 14 - - WNW 1009,8 10 0,0
09.12.2018 13:00:00 5,7 0,9 28 15 - - WNW 1008,7 10 0,0
09.12.2018 12:00:00 5,5 1,7 22 12 - - WNW 1008,0 10 0,0
09.12.2018 11:00:00 6,0 0,2 26 14 - - NNW 1007,1 10 0,0
09.12.2018 10:00:00 5,7 0,5 22 12 - - NNW 1005,7 10 0,0
09.12.2018 09:00:00 5,8 0,2 22 12 - - N 1004,3 10 0,0
09.12.2018 08:00:00 5,9 2,2 26 14 - - NW 1002,8 30 0,0
09.12.2018 07:00:00 6,0 2,3 24 13 - - N 1000,9 10 0,0
09.12.2018 06:00:00 5,9 3,2 24 13 - - NW 999,1 10 0,0
09.12.2018 05:00:00 5,5 2,9 26 14 - - NW 997,4 10 0,0
09.12.2018 04:00:00 5,9 2,9 28 15 - - NW 995,9 10 0,0
09.12.2018 03:00:00 6,2 2,3 26 14 - - NNW 994,7 10 0,0
09.12.2018 02:00:00 6,3 2,9 22 12 - - NW 993,2 10 0,0
09.12.2018 01:00:00 6,3 3,4 24 13 - - NNW 992,0 10 0,0
09.12.2018 00:00:00 6,4 3,7 22 12 - - NNW 990,7 7 0,2
08.12.2018 23:00:00 6,4 4,2 21 11 - - NW 989,7 8 0,0
08.12.2018 22:00:00 6,0 4,3 22 12 - - NW 989,0 10 0,2
08.12.2018 21:00:00 6,5 4,1 21 11 - - NW 988,3 30 0,0
08.12.2018 20:00:00 6,7 4,4 18 10 - - WNW 987,7 10 0,0
08.12.2018 19:00:00 6,7 4,2 16 9 - - NW 987,0 10 0,0
08.12.2018 18:00:00 6,8 4,5 21 11 - - NNW 986,7 10 0,0
08.12.2018 17:00:00 7,1 4,6 18 10 - - NNW 986,6 10 0,0
08.12.2018 16:00:00 7,1 5,8 16 9 - - WNW 986,4 10 0,0
08.12.2018 15:00:00 7,1 5,4 15 8 - - WNW 986,4 8 0,0
08.12.2018 14:00:00 7,5 5,6 26 14 - - WNW 986,3 10 0,0
08.12.2018 13:00:00 7,9 5,5 26 14 - - W 986,6 10 0,0
08.12.2018 12:00:00 8,1 5,8 24 13 - - W 986,4 10 0,0
08.12.2018 11:00:00 7,6 5,2 31 17 50 27 W 986,7 10 0,0
08.12.2018 10:00:00 7,5 5,3 31 17 46 25 W 986,3 10 0,0
08.12.2018 09:00:00 7,8 5,4 28 15 48 26 W 986,0 10 0,0
08.12.2018 08:00:00 7,4 5,5 35 19 50 27 W 985,0 10 0,0
08.12.2018 07:00:00 7,7 5,7 39 21 57 31 WNW 984,1 10 0,0
08.12.2018 06:00:00 7,7 5,5 37 20 59 32 W 982,7 10 0,0
08.12.2018 05:00:00 7,8 5,3 35 19 57 31 W 981,3 10 0,0
08.12.2018 04:00:00 7,7 5,2 42 23 63 34 W 980,1 10 0,4
08.12.2018 03:00:00 7,3 5,4 42 23 65 35 W 979,1 10 0,2
08.12.2018 02:00:00 7,6 5,3 39 21 65 35 W 977,9 10 0,2
08.12.2018 01:00:00 7,6 5,5 42 23 67 36 W 977,0 10 0,0
08.12.2018 00:00:00 7,7 5,0 42 23 59 32 WSW 975,6 10 0,2
07.12.2018 23:00:00 7,2 4,9 39 21 59 32 WSW 974,8 10 0,0
07.12.2018 22:00:00 7,0 5,1 41 22 63 34 WSW 974,7 10 0,0
07.12.2018 21:00:00 6,9 4,4 41 22 65 35 WSW 974,5 10 0,6
07.12.2018 20:00:00 7,0 4,0 39 21 68 37 SW 974,5 10 0,0
07.12.2018 19:00:00 6,8 4,2 48 26 72 39 SW 974,5 10 0,4
07.12.2018 18:00:00 7,4 3,6 46 25 63 34 SW 974,8 10 0,0
07.12.2018 17:00:00 7,2 3,0 31 17 61 33 SW 975,4 10 0,0
07.12.2018 16:00:00 6,8 2,0 41 22 72 39 SW 976,0 10 0,0
07.12.2018 15:00:00 7,6 2,0 41 22 76 41 SW 977,0 10 0,0
07.12.2018 14:00:00 7,4 2,1 42 23 68 37 SW 978,1 10 0,0
07.12.2018 13:00:00 7,6 1,9 44 24 65 35 SW 979,2 10 0,0
07.12.2018 12:00:00 6,8 2,5 41 22 59 32 SSW 980,0 10 0,0
07.12.2018 11:00:00 7,0 2,3 31 17 50 27 SSW 981,0 10 0,0
07.12.2018 10:00:00 6,5 2,3 28 15 48 26 SSW 981,3 35 0,0
07.12.2018 09:00:00 6,6 2,5 18 10 - - SSW 982,4 10 0,0
07.12.2018 08:00:00 7,5 2,7 29 16 46 25 SSW 982,8 10 0,0
07.12.2018 07:00:00 8,2 5,7 21 11 - - S 983,7 10 0,0
07.12.2018 06:00:00 8,3 5,1 35 19 52 28 SSE 984,3 10 0,0
07.12.2018 05:00:00 8,2 4,8 37 20 52 28 SSE 985,7 10 0,0
07.12.2018 04:00:00 8,2 4,9 22 12 - - SSE 988,2 10 0,2
07.12.2018 03:00:00 7,1 4,8 13 7 - - ESE 991,2 10 0,2
07.12.2018 02:00:00 7,0 3,1 15 8 - - SE 993,4 35 0,0
07.12.2018 01:00:00 6,3 2,9 13 7 - - SE 995,6 10 0,0
07.12.2018 00:00:00 7,2 3,5 13 7 59 32 SSE 997,6 10 0,0
06.12.2018 23:00:00 6,8 3,6 21 11 - - SSW 998,6 10 0,0
06.12.2018 22:00:00 5,1 3,2 18 10 - - S 998,8 10 0,0
06.12.2018 21:00:00 3,7 1,8 13 7 - - SSW 999,6 10 0,0
06.12.2018 20:00:00 6,0 3,3 9 5 - - SW 999,9 10 0,0
06.12.2018 19:00:00 7,8 4,6 13 7 - - E 999,7 10 0,0
06.12.2018 18:00:00 7,9 4,8 28 15 - - WSW 999,2 10 0,0
06.12.2018 17:00:00 8,2 4,5 18 10 - - WSW 999,2 10 0,0
06.12.2018 16:00:00 8,2 4,9 24 13 - - WSW 998,2 30 0,0
06.12.2018 15:00:00 9,2 5,7 26 14 48 26 W 997,0 10 0,0
06.12.2018 14:00:00 10,8 7,6 24 13 - - W 996,5 10 0,0
06.12.2018 13:00:00 8,6 7,2 15 8 - - W 996,3 10 0,0
06.12.2018 12:00:00 8,7 6,6 5 3 - - SW 995,8 10 0,0
06.12.2018 11:00:00 8,6 6,1 18 10 - - SSW 996,0 10 0,0
06.12.2018 10:00:00 6,8 5,5 15 8 - - ESE 996,6 10 0,2
06.12.2018 09:00:00 6,3 5,2 13 7 - - ESE 997,4 10 0,6
06.12.2018 08:00:00 6,5 5,1 13 7 - - SSE 999,1 9 1,0
06.12.2018 07:00:00 6,3 4,5 16 9 - - SE 1000,1 10 0,4
06.12.2018 06:00:00 6,0 4,6 16 9 - - SSE 1001,6 10 0,0
06.12.2018 05:00:00 5,0 4,0 24 13 - - SE 1002,0 10 0,0
06.12.2018 04:00:00 4,5 3,4 21 11 - - ESE 1004,2 10 0,0
06.12.2018 03:00:00 4,0 3,2 13 7 - - SE 1005,9 10 0,0
06.12.2018 02:00:00 4,6 3,7 16 9 - - ESE 1006,1 10 0,0
06.12.2018 01:00:00 3,8 3,1 11 6 - - SE 1007,9 10 0,0
06.12.2018 00:00:00 4,1 3,5 13 7 - - ESE 1007,9 10 0,0
05.12.2018 23:00:00 4,0 3,3 9 5 - - SE 1008,1 10 0,0
05.12.2018 22:00:00 3,1 2,3 5 3 - - SE 1008,8 10 0,0
05.12.2018 21:00:00 3,0 2,3 15 8 - - ESE 1008,0 20 0,0
05.12.2018 20:00:00 2,3 1,2 13 7 - - ESE 1009,4 25 0,0
05.12.2018 19:00:00 1,3 0,0 11 6 - - SE 1010,1 40 0,0
05.12.2018 18:00:00 1,0 -0,9 5 3 - - SE 1011,1 10 0,0
05.12.2018 17:00:00 -0,1 -1,7 5 3 - - E 1011,0 10 0,0
05.12.2018 16:00:00 -0,4 -2,3 11 6 - - SE 1011,3 10 0,0
05.12.2018 15:00:00 -0,2 -2,5 11 6 - - SE 1011,9 10 0,0
05.12.2018 14:00:00 1,1 -2,3 11 6 - - ESE 1012,9 10 0,0
05.12.2018 13:00:00 0,0 -2,6 13 7 - - E 1013,1 10 0,0
05.12.2018 12:00:00 -1,0 -3,3 9 5 - - SE 1014,5 10 0,0
05.12.2018 11:00:00 -1,7 -3,4 8 4 - - SE 1015,3 10 0,0
05.12.2018 10:00:00 -2,0 -3,5 9 5 - - SSE 1015,9 10 0,0
05.12.2018 09:00:00 -2,4 -3,8 8 4 - - SE 1016,1 10 0,0
05.12.2018 08:00:00 -1,9 -3,6 9 5 - - SE 1016,4 10 0,0
05.12.2018 07:00:00 -2,0 -3,7 9 5 - - SSE 1016,8 10 0,0
05.12.2018 06:00:00 -2,0 -3,8 8 4 - - SSE 1017,3 10 0,0
05.12.2018 05:00:00 -2,5 -3,6 5 3 - - S 1017,6 10 0,0
05.12.2018 04:00:00 -2,8 -4,9 5 3 - - SSE 1017,5 10 0,0
05.12.2018 03:00:00 -2,0 -3,2 5 3 - - S 1018,2 50 0,0
05.12.2018 02:00:00 -2,2 -3,5 8 4 - - S 1018,2 10 0,0
05.12.2018 01:00:00 -2,8 -4,0 9 5 - - SSW 1018,2 10 0,0
05.12.2018 00:00:00 -3,5 -4,5 9 5 - - SSW 1018,4 10 0,0
04.12.2018 23:00:00 -3,1 -4,1 9 5 - - SSW 1018,5 10 0,0
04.12.2018 22:00:00 -2,1 -4,0 9 5 - - SSW 1018,7 10 0,0
04.12.2018 21:00:00 -0,2 -1,0 8 4 - - SW 1018,4 10 0,0
04.12.2018 20:00:00 0,8 -0,9 9 5 - - SSW 1018,1 10 0,0
04.12.2018 19:00:00 0,7 -1,0 11 6 - - SW 1018,1 10 0,0
04.12.2018 18:00:00 1,2 -0,7 13 7 - - WSW 1017,8 10 0,0
04.12.2018 17:00:00 1,5 -0,2 15 8 - - SW 1017,4 10 0,0
04.12.2018 16:00:00 1,9 0,4 15 8 - - SW 1017,2 10 0,0
04.12.2018 15:00:00 3,1 0,1 11 6 - - SW 1016,8 10 0,0
04.12.2018 14:00:00 4,2 1,0 16 9 - - WSW 1016,3 10 0,0

tt = temperature
td = dewpoint
ff = wind speed
fx = gusts
dd = wind direction
ppp = reduced air pressure
vv = visibility
rr = precipitation

Next stations